Regional Weather Roundup
Issued by NWS Albany, NY

Home | Current Version | Previous Version | Text Only | Print | Product List | Glossary On
Versions: 1 2 3 4 5 6 7 8 9 10 11 12 13 14 15 16 17 18 19 20 21 22 23 24 25 26 27 28
000
ASUS41 KALY 281710
RWRALY

NEW YORK STATE HOURLY WEATHER ROUNDUP
NATIONAL WEATHER SERVICE ALBANY NY
100 PM EDT WED JUN 28 2017

NOTE: "FAIR" INDICATES FEW OR NO CLOUDS BELOW 12,000 FEET WITH NO
SIGNIFICANT WEATHER AND/OR NO OBSTRUCTIONS TO VISIBILITY.

NYZ032-033-038>043-046>054-057>066-NYZ062>081-082-084-281800-
EAST


CITY           SKY/WX    TMP DP  RH WIND       PRES   REMARKS
ALBANY         PTSUNNY   70  50  49 NW13      30.09R
GLENS FALLS    PTSUNNY   70  48  45 SW6       30.04S
POUGHKEEPSIE   PTSUNNY   73  51  46 SW9       30.09S
NEWBURGH       PTSUNNY   73  52  46 NW12      30.12S
MONTGOMERY     MOSUNNY   76  48  37 W10G24    30.11R
WHITE PLAINS   PTSUNNY   74  49  41 NW13      30.11F
ISLIP          MOSUNNY   76  46  34 NW14      30.10S
NEW YORK CITY  MOSUNNY   75  48  38 W17G24    30.11F
CENTRAL PARK   MOSUNNY   75  48  38 W7        30.14F
$$

NYZ005>009-017-018-044>046-055-056-281800-
CENTRAL


CITY           SKY/WX    TMP DP  RH WIND       PRES   REMARKS
FULTON         SUNNY     73  53  49 W10       30.11S
SYRACUSE       MOSUNNY   73  54  51 W14       30.10R
ROME           MOSUNNY   71  52  50 W14G24    30.11R
ELMIRA         MOSUNNY   73  52  47 SW9       30.12F
BINGHAMTON     PTSUNNY   68  49  50 W12       30.15R
MONTICELLO     PTSUNNY   70  48  46 NW9G18    30.16R
$$

NYZ026>034-041>043-087-281800-
NORTH


CITY           SKY/WX    TMP DP  RH WIND       PRES   REMARKS
WATERTOWN      SUNNY     70  55  59 SW10G22   30.09R
FORT DRUM      NOT AVBL
OGDENSBURG     FAIR      73  55  53 W12       30.04S
MASSENA        MOSUNNY   71  55  56 W14       30.04R
SARANAC LAKE   CLOUDY    62  49  62 W9G18     30.05R
PLATTSBURGH    LGT RAIN  64  53  67 NW6G24    30.01R
$$

NYZ001>004-010>016-019>021-085-281800-
WEST


CITY           SKY/WX    TMP DP  RH WIND       PRES   REMARKS
NIAGARA FALLS  MOSUNNY   75  52  44 SW14G21   30.09F
BUFFALO        SUNNY     72  52  49 SW17G24   30.11S
DUNKIRK        SUNNY     71  55  56 W13G21    30.14R
JAMESTOWN      MOSUNNY   66  46  48 W12G17    30.16S
WELLSVILLE     MOSUNNY   69  48  47 W9        30.17F
ROCHESTER      MOSUNNY   73  52  47 W10       30.10S
PENN YAN       PTSUNNY   72  48  42 VRB7      30.13S
$$

             KEY
       WCI = WIND CHILL INDEX
       VSB = VISIBILITY
       HX  = HEAT INDEX
$$




USA.gov is the U.S. government's official web portal to all federal, state and local government web resources and services.